| time (UTC) | temp F | wind direction | speed MPH | gust MPH | rain 1hr in | rain 24hr in | rain mn in | humidity % | barometer mb |
| 20260508024552 | 41 | 114 | 0.0 | 0.0 | 0.00 | 0.00 | 0.00 | 78 | 1007.7 |
| 20260508023048 | 42 | 115 | 0.0 | 0.0 | 0.00 | 0.00 | 0.00 | 74 | 1007.6 |
| 20260508021546 | 43 | 115 | 0.0 | 0.0 | 0.00 | 0.00 | 0.00 | 70 | 1007.8 |
| 20260508020044 | 44 | 114 | 0.0 | 0.0 | 0.00 | 0.00 | 0.00 | 67 | 1007.8 |
| 20260508014545 | 44 | 115 | 0.0 | 0.0 | 0.00 | 0.00 | 0.00 | 72 | 1007.8 |
| 20260508013034 | 44 | 115 | 0.0 | 0.0 | 0.00 | 0.00 | 0.00 | 64 | 1007.8 |
| 20260508011533 | 45 | 115 | 0.0 | 0.0 | 0.00 | 0.00 | 0.00 | 63 | 1007.6 |
| 20260508010031 | 46 | 115 | 0.0 | 0.0 | 0.00 | 0.00 | 0.00 | 62 | 1007.5 |
| 20260508004531 | 47 | 115 | 0.0 | 0.0 | 0.00 | 0.00 | 0.00 | 57 | 1007.4 |
| 20260508003027 | 47 | 115 | 0.0 | 4.0 | 0.00 | 0.00 | 0.00 | 62 | 1006.9 |
| 20260508001525 | 48 | 115 | 0.0 | 1.0 | 0.00 | 0.00 | 0.00 | 64 | 1006.8 |
| 20260508000125 | 50 | 115 | 0.0 | 2.0 | 0.00 | 0.00 | 0.00 | 57 | 1006.7 |
| 20260507234540 | 50 | 115 | 0.0 | 2.0 | 0.00 | 0.00 | 0.00 | 57 | 1006.7 |
| 20260507233013 | 51 | 115 | 0.0 | 1.0 | 0.00 | 0.00 | 0.00 | 57 | 1006.4 |
| 20260507231507 | 52 | 114 | 0.0 | 3.0 | 0.00 | 0.00 | 0.00 | 56 | 1006.1 |
| 20260507230055 | 53 | 115 | 0.0 | 4.0 | 0.00 | 0.00 | 0.00 | 55 | 1005.8 |
| 20260507224555 | 54 | 115 | 0.0 | 3.0 | 0.00 | 0.00 | 0.00 | 52 | 1005.5 |
| 20260507223105 | 54 | 115 | 0.0 | 2.0 | 0.00 | 0.00 | 0.00 | 54 | 1005.1 |
| 20260507221554 | 55 | 115 | 0.0 | 3.0 | 0.00 | 0.00 | 0.00 | 52 | 1005.0 |
| 20260507220053 | 56 | 115 | 0.0 | 3.0 | 0.00 | 0.00 | 0.00 | 53 | 1005.0 |
| 20260507214553 | 57 | 115 | 0.0 | 4.0 | 0.00 | 0.00 | 0.00 | 52 | 1004.8 |
| 20260507213051 | 58 | 115 | 1.0 | 5.0 | 0.00 | 0.00 | 0.00 | 45 | 1004.6 |
| 20260507211600 | 58 | 115 | 0.0 | 6.0 | 0.00 | 0.00 | 0.00 | 42 | 1004.4 |
| 20260507204544 | 62 | 115 | 1.0 | 6.0 | 0.00 | 0.00 | 0.00 | 42 | 1003.9 |
| 20260507203038 | 59 | 115 | 1.0 | 4.0 | 0.00 | 0.00 | 0.00 | 49 | 1003.9 |
| 20260507201535 | 60 | 115 | 0.0 | 5.0 | 0.00 | 0.00 | 0.00 | 56 | 1003.7 |
| 20260507200041 | 59 | 115 | 0.0 | 5.0 | 0.00 | 0.00 | 0.00 | 49 | 1003.8 |
| 20260507194547 | 58 | 115 | 0.0 | 2.0 | 0.00 | 0.00 | 0.00 | 51 | 1003.9 |
| 20260507193032 | 59 | 115 | 2.0 | 9.0 | 0.00 | 0.00 | 0.00 | 50 | 1003.9 |
| 20260507191531 | 59 | 115 | 1.0 | 6.0 | 0.00 | 0.00 | 0.00 | 58 | 1003.9 |
| 20260507190016 | 59 | 115 | 0.0 | 7.0 | 0.00 | 0.00 | 0.00 | 58 | 1004.0 |
| 20260507184512 | 59 | 115 | 0.0 | 6.0 | 0.00 | 0.00 | 0.00 | 59 | 1004.0 |
| 20260507183118 | 60 | 115 | 0.0 | 8.0 | 0.00 | 0.00 | 0.00 | 59 | 1003.9 |
| 20260507181601 | 60 | 114 | 2.0 | 10.0 | 0.00 | 0.00 | 0.00 | 56 | 1004.0 |
| 20260507180059 | 59 | 115 | 0.0 | 4.0 | 0.00 | 0.00 | 0.00 | 61 | 1004.3 |
| 20260507174603 | 60 | 114 | 0.0 | 3.0 | 0.00 | 0.00 | 0.00 | 59 | 1004.3 |
| 20260507173102 | 60 | 114 | 0.0 | 6.0 | 0.00 | 0.00 | 0.00 | 61 | 1004.3 |
| 20260507171550 | 59 | 114 | 0.0 | 4.0 | 0.00 | 0.00 | 0.00 | 58 | 1004.3 |
| 20260507170049 | 59 | 115 | 4.0 | 8.0 | 0.00 | 0.00 | 0.00 | 56 | 1004.5 |
| 20260507164608 | 59 | 115 | 2.0 | 8.0 | 0.00 | 0.00 | 0.00 | 61 | 1004.6 |
| 20260507163052 | 58 | 114 | 0.0 | 3.0 | 0.00 | 0.00 | 0.00 | 74 | 1004.7 |
| 20260507161547 | 58 | 115 | 1.0 | 2.0 | 0.00 | 0.00 | 0.00 | 67 | 1004.9 |
| 20260507160032 | 57 | 115 | 1.0 | 5.0 | 0.00 | 0.00 | 0.00 | 65 | 1005.3 |
| 20260507154531 | 58 | 115 | 2.0 | 5.0 | 0.00 | 0.00 | 0.00 | 67 | 1005.6 |
| 20260507153036 | 58 | 115 | 1.0 | 8.0 | 0.00 | 0.00 | 0.00 | 68 | 1005.5 |
| 20260507151533 | 57 | 115 | 1.0 | 8.0 | 0.00 | 0.00 | 0.00 | 72 | 1005.4 |
| 20260507150034 | 58 | 115 | 1.0 | 6.0 | 0.00 | 0.00 | 0.00 | 70 | 1005.6 |
| 20260507144534 | 57 | 114 | 2.0 | 9.0 | 0.00 | 0.00 | 0.00 | 69 | 1005.7 |
| 20260507143029 | 59 | 114 | 2.0 | 4.0 | 0.00 | 0.00 | 0.00 | 69 | 1006.0 |
| 20260507141516 | 59 | 114 | 0.0 | 4.0 | 0.00 | 0.00 | 0.00 | 67 | 1006.1 |
| 20260507140010 | 59 | 114 | 0.0 | 4.0 | 0.00 | 0.00 | 0.00 | 74 | 1006.3 |
| 20260507134557 | 60 | 114 | 0.0 | 1.0 | 0.00 | 0.00 | 0.00 | 70 | 1006.4 |
| 20260507133056 | 60 | 114 | 0.0 | 2.0 | 0.00 | 0.00 | 0.00 | 75 | 1006.3 |
| 20260507131601 | 59 | 114 | 0.0 | 2.0 | 0.00 | 0.00 | 0.00 | 72 | 1006.3 |
| 20260507130055 | 59 | 114 | 0.0 | 1.0 | 0.00 | 0.00 | 0.00 | 76 | 1006.4 |
| 20260507124601 | 57 | 114 | 0.0 | 4.0 | 0.00 | 0.00 | 0.00 | 81 | 1006.7 |
| 20260507123049 | 57 | 114 | 0.0 | 2.0 | 0.00 | 0.00 | 0.00 | 90 | 1006.5 |
| 20260507121551 | 56 | 115 | 0.0 | 3.0 | 0.00 | 0.00 | 0.00 | 93 | 1006.4 |
| 20260507120051 | 58 | 114 | 0.0 | 0.0 | 0.00 | 0.00 | 0.00 | 97 | 1006.9 |
| 20260507114553 | 55 | 115 | 0.0 | 0.0 | 0.00 | 0.00 | 0.00 | 97 | 1007.0 |
| 20260507113053 | 53 | 115 | 0.0 | 4.0 | 0.00 | 0.00 | 0.00 | 96 | 1006.7 |
| 20260507111536 | 53 | 115 | 0.0 | 1.0 | 0.00 | 0.00 | 0.00 | 98 | 1007.1 |
| 20260507110025 | 51 | 115 | 0.0 | 2.0 | 0.00 | 0.00 | 0.00 | 98 | 1006.9 |
| 20260507104534 | 49 | 115 | 0.0 | 0.0 | 0.00 | 0.00 | 0.00 | 99 | 1006.8 |
| 20260507103026 | 47 | 115 | 0.0 | 0.0 | 0.00 | 0.00 | 0.00 | 100 | 1007.1 |
| 20260507101525 | 44 | 115 | 0.0 | 0.0 | 0.00 | 0.00 | 0.00 | 100 | 1006.6 |
| 20260507100020 | 43 | 115 | 0.0 | 0.0 | 0.00 | 0.00 | 0.00 | 100 | 1006.4 |
| 20260507094509 | 43 | 115 | 0.0 | 0.0 | 0.00 | 0.00 | 0.00 | 100 | 1006.6 |
| 20260507093008 | 44 | 115 | 0.0 | 0.0 | 0.00 | 0.00 | 0.00 | 100 | 1006.4 |
| 20260507091507 | 44 | 115 | 0.0 | 0.0 | 0.00 | 0.00 | 0.00 | 100 | 1006.5 |
| 20260507090006 | 44 | 115 | 0.0 | 0.0 | 0.00 | 0.00 | 0.00 | 100 | 1006.6 |
| 20260507084506 | 45 | 115 | 0.0 | 0.0 | 0.00 | 0.00 | 0.00 | 100 | 1006.4 |
| 20260507083003 | 45 | 115 | 0.0 | 0.0 | 0.00 | 0.00 | 0.00 | 100 | 1006.0 |
| 20260507081500 | 45 | 115 | 0.0 | 0.0 | 0.00 | 0.00 | 0.00 | 100 | 1006.1 |
| 20260507074555 | 46 | 115 | 0.0 | 0.0 | 0.00 | 0.00 | 0.00 | 100 | 1006.7 |
| 20260507073046 | 46 | 115 | 0.0 | 0.0 | 0.00 | 0.00 | 0.00 | 100 | 1006.1 |
| 20260507071543 | 46 | 115 | 0.0 | 0.0 | 0.00 | 0.00 | 0.00 | 100 | 1006.2 |
| 20260507070045 | 46 | 115 | 0.0 | 0.0 | 0.00 | 0.00 | 0.00 | 100 | 1005.7 |
| 20260507064541 | 46 | 115 | 0.0 | 0.0 | 0.00 | 0.00 | 0.00 | 100 | 1005.8 |
| 20260507063043 | 46 | 115 | 0.0 | 0.0 | 0.00 | 0.00 | 0.00 | 100 | 1005.6 |
| 20260507061542 | 47 | 115 | 0.0 | 0.0 | 0.00 | 0.00 | 0.00 | 100 | 1005.6 |
| 20260507060039 | 47 | 115 | 0.0 | 0.0 | 0.00 | 0.00 | 0.00 | 100 | 1005.1 |
| 20260507054525 | 47 | 115 | 0.0 | 1.0 | 0.00 | 0.00 | 0.00 | 100 | 1005.2 |
| 20260507053024 | 47 | 115 | 0.0 | 1.0 | 0.00 | 0.00 | 0.00 | 100 | 1005.4 |
| 20260507051522 | 48 | 115 | 0.0 | 0.0 | 0.00 | 0.00 | 0.00 | 100 | 1005.9 |
| 20260507050027 | 48 | 115 | 0.0 | 2.0 | 0.00 | 0.00 | 0.00 | 100 | 1005.6 |
| 20260507044519 | 49 | 115 | 0.0 | 1.0 | 0.00 | 0.00 | 0.00 | 100 | 1006.0 |
| 20260507043023 | 49 | 115 | 0.0 | 1.0 | 0.00 | 0.00 | 0.00 | 100 | 1005.5 |
| 20260507041513 | 50 | 115 | 0.0 | 1.0 | 0.00 | 0.00 | 0.00 | 100 | 1005.4 |
| 20260507040012 | 51 | 115 | 0.0 | 1.0 | 0.00 | 0.00 | 0.00 | 100 | 1005.4 |
| 20260507034558 | 51 | 115 | 0.0 | 2.0 | 0.00 | 0.00 | 0.00 | 100 | 1005.2 |
| 20260507033055 | 52 | 115 | 0.0 | 1.0 | 0.00 | 0.00 | 0.00 | 100 | 1005.1 |
| 20260507031551 | 53 | 115 | 0.0 | 0.0 | 0.00 | 0.00 | 0.00 | 100 | 1004.4 |
| 20260507030052 | 53 | 115 | 0.0 | 3.0 | 0.00 | 0.00 | 0.00 | 100 | 1004.3 |